User: anonymous   Login
Location: Claremont
(33.9858°S, 18.4575°E)
Time: 23:59:38
(UTC+00:00)
Language:

Cosmos 1934 Rocket - Orbit

View from above orbital plane
View from above orbital plane
View from above satellite
View from above satellite

Ground track
Ground track

The orbit data is extracted from the following two-line orbital elements,

1 18986U 88023B   21129.56485732  .00000010  00000-0 -53886-5 0  9995
2 18986  82.9555  65.4011 0041503 182.9407 177.1514 13.78651885666342
Epoch (UTC): 09 May 2021 13:33:23
Eccentricity: 0.0041503
inclination: 82.9555°
perigee height: 938 km
apogee height: 999 km
right ascension of ascending node: 65.4011°
argument of perigee: 182.9407°
revolutions per day: 13.78651885
mean anomaly at epoch: 177.1514°
orbit number at epoch: 66634

The dashed part of the orbit path shows where the satellite is in the earth's shadow,  

DLR